Terminal Aerodrome Forecast
Issued by NWS Boston, MA

Home | Current Version | Previous Version | Text Only | Print | Product List | Glossary On
Versions: 1 2 3 4 5 6 7 8 9 10 11 12 13 14 15 16 17 18 19 20 21 22 23
000
FTUS41 KBOX 240300 AAA
TAFPVD
TAF AMD
KPVD 240300Z 2403/2424 21010G17KT 5SM BR VCSH SCT015 BKN040
      WS020/23040KT
     FM240500 21010G17KT 5SM BR VCSH BKN015 WS020/24040KT
     FM241100 23011G21KT 6SM BR VCSH BKN015
     FM241400 22010G20KT 5SM -RA BR VCTS BKN015CB
     FM241600 24008KT 6SM -RA BKN060
     FM241800 29005KT P6SM SCT140
     FM242000 28010G17KT P6SM FEW200=

USA.gov is the U.S. government's official web portal to all federal, state and local government web resources and services.